Back to catalog

RADARSAT

AliveScienceSSO
NORAD 23710·PAYLOAD·🇨🇦 Canada

Launched Nov 4, 1995 from Vandenberg Space Force Base

Loading…

Next Passes (next 24 hours)

TLE

FreshSource: Space-Track

Epoch: Sep 14, 2026, 07:05 UTC

1 23710U 95059A   26257.29565811  .00000124  00000-0  61864-4 0  9996
2 23710  98.5495 265.0269 0001443  99.0885 261.0462 14.32441853611101

Track RADARSAT in real time with AllMySat

Download on the App Store